Regional Weather Roundup
Issued by NWS

Home | Current Version | Previous Version | Text Only | Print | Product List | Glossary On
Versions: 1 2 3 4 5 6 7 8 9 10 11 12 13 14 15 16 17 18 19 20 21 22 23 24 25 26 27 28 29 30 31 32 33 34 35 36 37 38 39 40 41 42 43 44 45 46 47 48 49 50
065
ASUS45 KTFX 180910
RWRMT
MONTANA REGIONAL WEATHER ROUNDUP
NATIONAL WEATHER SERVICE GREAT FALLS MT
200 AM MST SAT NOV 18 2017

NOTE: "FAIR" INDICATES FEW OR NO CLOUDS BELOW 12000 FEET WITH NO
SIGNIFICANT WEATHER AND/OR OBSTRUCTIONS TO VISIBILITY.

MTZ001>007-043-181000-
WEST OF THE DIVIDE

CITY           SKY/WX    TMP DP  RH WIND       PRES   REMARKS
KALISPELL      CLOUDY    37  24  59 S9        30.17R WCI  30
MISSOULA       CLOUDY    34  25  69 CALM      30.23S
BUTTE          FAIR      21  12  68 CALM      30.18R
MULLAN PASS    FLURRIES  22  19  89 W10G18    30.15R WCI  11
ANACONDA         N/A     27  14  59 S5        30.19F
EUREKA           N/A     37  23  56 MISG      30.16R
HAMILTON         N/A     37  18  44 SE7       30.26R
LIBBY            N/A     32  28  86 NE3       30.19R
RONAN            N/A     35  25  67 SE1       30.23S
$$

MTZ008-052>055-181000-
SOUTHWEST MONTANA

CITY           SKY/WX    TMP DP  RH WIND       PRES   REMARKS
BOZEMAN        FAIR      24  12  60 SE3       30.20R
DILLON         FAIR      27  10  49 SW15      30.20R WCI  15
W YELLOWSTONE  FAIR      12   7  79 S6        30.19R WCI   3
ENNIS          CLOUDY    25  10  54 S12       30.24R WCI  14
$$

MTZ009-010-012-014-046-048-049-054-181000-
EAST SLOPES AND CENTRAL MONTANA

CITY           SKY/WX    TMP DP  RH WIND       PRES   REMARKS
CUT BANK       CLOUDY    33  21  61 W33G41    29.95S WCI  18
GREAT FALLS    CLOUDY    33  17  51 SW20      30.03R WCI  21
MALMSTROM AFB  MOCLDY    32  18  57 SW18G25   30.04R WCI  20
HELENA         CLOUDY    35  17  47 W20G28    30.15R WCI  24
BOWMANS CRNR   MOCLDY    32  17  55 SW23      30.04R WCI  19
CHOTEAU          N/A     36  16  44 SW15G25   30.00F WCI  26
FAIRFIELD      MOCLDY    34  17  50 W20       29.99F WCI  23
POWER          MOCLDY    33  18  52 SW15      30.00R WCI  23
RAYNESFORD     FAIR      33  15  48 SW25G33   30.02R WCI  20
ULM            FAIR      34  18  52 W22       30.05R WCI  22
$$

MTZ011-013-016-021-045-047-050-051-181000-
NORTH CENTRAL MONTANA

CITY           SKY/WX    TMP DP  RH WIND       PRES   REMARKS
HAVRE          FAIR      11   8  88 W3        30.05R
LEWISTOWN      FAIR      25  16  68 CALM      30.02R
N BAR RANCH    FAIR      25  12  58 NW3       30.02R
CHINOOK          N/A     12   9  85 W7        30.06R WCI   2
DENTON         FAIR      32  18  55 MISG      29.98R
GEYSER         FAIR      28  17  63 W14       30.01R WCI  17
GRASS RANGE    FAIR      28  16  61 SW10      29.98R WCI  19
STANFORD       FAIR      30  14  52 CALM      30.01R
WINIFRED       FAIR      29  18  63 W12       30.00R WCI  19
$$

MTZ017>020-022>027-061-062-181000-
NORTHEAST MONTANA

CITY           SKY/WX    TMP DP  RH WIND       PRES   REMARKS
GLASGOW        FAIR      12   8  84 NW12      30.03R WCI  -2
GLENDIVE       MOCLDY    16  12  84 N8        30.02R WCI   5
JORDAN           N/A     21  18  88 W6        30.03R WCI  13
SIDNEY         FAIR      13   7  77 CALM      30.04R
WOLF POINT     FAIR      12   6  77 W7        30.06R WCI   1
MALTA          PTCLDY    10   9  92 S5        30.07R
PLENTYWOOD       N/A      9   3  78 CALM      29.99R
POPLAR           N/A      9   3  78 W6        30.05R WCI  -1
$$

MTZ028>42-056>058-181000-
SOUTHCENTRAL AND SOUTHEAST MONTANA

CITY           SKY/WX    TMP DP  RH WIND       PRES   REMARKS
BAKER          FAIR      28  24  85 W12       29.96R WCI  18
BILLINGS       FAIR      32  17  54 W20       30.06R WCI  20
LIVINGSTON     FAIR      31  13  47 W24G32    30.12R WCI  17
MILES CITY     FAIR      29  22  75 NW8       30.02R WCI  21
BIG TIMBER     CLEAR     32  12  43 W33G45    30.08R WCI  17
FORSYTH          N/A     34  19  55 W8        30.03R WCI  27
HARLOWTON      MOCLDY    29  17  60 NW18G28   30.06R WCI  16
LAUREL           N/A     36  12  38 W18G26    30.08R WCI  25
ROUNDUP          N/A     34  13  42 SW20      29.95R WCI  23
$$

REGIONAL REPORTS...DAKOTAS

CITY           SKY/WX    TMP DP  RH WIND       PRES   REMARKS
WILLISTON      FAIR      10   6  84 SW7       30.01R WCI  -1
MINOT          CLOUDY    16   9  74 W14       29.92R WCI   2
DICKINSON      FAIR      21  18  88 NW17      29.91R WCI   7
BEACH          MOCLDY    16  14  93 NW12      30.00R WCI   3
CROSBY         FAIR      12   9  85 W12       29.97R WCI  -2
TIOGA          MOCLDY    10   9  92 W8        29.96R WCI  -1
WATFORD CITY   FAIR      10   7  85 W6        29.99R WCI   1
BISMARCK       FAIR      26  21  81 N10       29.92R WCI  16
GRAND FORKS    MOCLDY    13  10  88 W6        29.87R WCI   4
FARGO          FAIR      18  15  88 NW7       29.85R WCI   9
BUFFALO SD       N/A     29  25  85 W16       29.87R WCI  17
RAPID CITY     FAIR      31  23  72 NW9       29.96R WCI  23
$$

REGIONAL REPORTS...WYOMING/IDAHO/WASHINGTON

CITY           SKY/WX    TMP DP  RH WIND       PRES   REMARKS
GILLETTE       FAIR      29  18  63 NW20      30.03R WCI  16
SHERIDAN       FAIR      29  17  61 W13       30.07R WCI  19
BUFFALO WY     MIX PCPN  31   9  39 NW32G39   30.02S WCI  16
CODY           FAIR      31  13  47 W17G29    30.09R WCI  19
YELLOWSTONE LA   N/A      0  -4  83 NW5       30.19R
IDAHO FALLS    FAIR      26  23  88 S15       30.30R WCI  14
SALMON         CLOUDY    30  17  58 S9        30.31R WCI  22
BOISE          FAIR      30  24  78 SE8       30.37S WCI  22
SPOKANE        MOCLDY    33  31  92 S10       30.25R WCI  25
$$

REGIONAL REPORTS...ALBERTA

CITY           SKY/WX    TMP DP  RH WIND       PRES   REMARKS
EDMONTON       CLEAR     10   5  79 SW6       29.89S WCI   1
CALGARY        PTCLDY     9   5  85 S10       29.88S WCI  -6
LETHBRIDGE     MOCLDY     9   5  85 S8        29.95S WCI  -4
MEDICINE HAT   CLEAR      5   1  85 SW8       30.03F WCI  -8
$$

REGIONAL REPORTS...SASKATCHEWAN

CITY           SKY/WX    TMP DP  RH WIND       PRES   REMARKS
SWIFT CURRENT  PTCLDY     5   1  85 W13       29.97R WCI -12
REGINA         PTCLDY     5   0  78 NW14      29.98R WCI -12
SASKATOON      CLEAR     -9 -13  84 SW8       30.00R WCI -26
$$




USA.gov is the U.S. government's official web portal to all federal, state and local government web resources and services.